Weather History for KBLM - March, 2013

Change the Weather History Date:

Saturday, March 2, 2013

  Actual Average Record
Temperature  
Mean Temperature 36 °F -  
Max Temperature 42 °F 43 °F 69 °F (1997)
Min Temperature 30 °F 29 °F 17 °F (2009)
Degree Days  
Heating Degree Days 29    
Moisture  
Dew Point 22 °F    
Average Humidity 58    
Maximum Humidity 75    
Minimum Humidity 45    
Precipitation  
Precipitation 0.00 in - - ()
Sea Level Pressure  
Sea Level Pressure 29.75 in    
Wind  
Wind Speed 11 mph (NW)    
Max Wind Speed 18 mph    
Max Gust Speed 22 mph    
Visibility 10 miles    
Events      
Averages and records for this station are not official NWS values.
T = Trace of Precipitation, MM = Missing Value Source: NWS Daily Summary

Daily Weather History Graph

Daily Weather History Graph

Search for Another Location

Airport or City:

Trip Planner

Search our weather history database for the weather conditions in past years. The results will help you decide how hot, cold, wet, or windy it might be!

Date:

Astronomy

Mar. 02, 2013 Rise Set
Actual Time 6:28 AM EST 5:49 PM EST
Civil Twilight 6:00 AM EST 6:16 PM EST
Nautical Twilight 5:29 AM EST 6:48 PM EST
Astronomical Twilight 4:58 AM EST 7:19 PM EST
Moon 11:26 PM EST (3/2) 8:53 AM EST (3/2)
Length of Visible Light 12h 15m
Length of Day
11h 21m
Waning Gibbous, 74% of the Moon is Illuminated
Mar 2
Waning Gibbous
Mar 4
Last Quarter
Mar 11
New
Mar 19
First Quarter
Mar 27
Full

Hourly Weather History & Observations

Time (EST) Temp. Windchill Dew Point Humidity Pressure Visibility Wind Dir Wind Speed Gust Speed Precip Events Conditions
12:15 AM 37.4 °F 29.8 °F 24.8 °F 60% 29.78 in 10.0 mi NW 11.5 mph - N/A   Overcast
12:35 AM 37.4 °F 31.4 °F 24.8 °F 60% 29.78 in 10.0 mi NW 8.1 mph - N/A   Overcast
12:55 AM 35.6 °F 29.2 °F 24.8 °F 65% 29.77 in 10.0 mi WNW 8.1 mph - N/A   Overcast
1:15 AM 35.6 °F 29.2 °F 24.8 °F 65% 29.78 in 10.0 mi NW 8.1 mph - N/A   Overcast
1:35 AM 35.6 °F 28.0 °F 24.8 °F 65% 29.78 in 10.0 mi NW 10.4 mph - N/A   Overcast
1:55 AM 35.6 °F 28.6 °F 24.8 °F 65% 29.77 in 10.0 mi NW 9.2 mph - N/A   Overcast
2:15 AM 35.6 °F 28.6 °F 24.8 °F 65% 29.78 in 10.0 mi WNW 9.2 mph 16.1 mph N/A   Overcast
2:35 AM 35.6 °F 27.5 °F 24.8 °F 65% 29.78 in 10.0 mi NW 11.5 mph - N/A   Overcast
2:55 AM 35.6 °F 27.5 °F 23.0 °F 60% 29.77 in 10.0 mi NW 11.5 mph - N/A   Overcast
3:15 AM 35.6 °F 29.2 °F 23.0 °F 60% 29.78 in 10.0 mi WNW 8.1 mph - N/A   Overcast
3:35 AM 33.8 °F 24.8 °F 24.8 °F 70% 29.78 in 10.0 mi WNW 12.7 mph - N/A   Overcast
3:55 AM 33.8 °F 27.7 °F 24.8 °F 70% 29.78 in 10.0 mi WNW 6.9 mph - N/A   Overcast
4:15 AM 33.8 °F 25.3 °F 23.0 °F 65% 29.78 in 10.0 mi WNW 11.5 mph - N/A   Overcast
4:35 AM 33.8 °F 25.8 °F 23.0 °F 65% 29.78 in 10.0 mi NW 10.4 mph - N/A   Overcast
4:55 AM 33.8 °F 26.4 °F 23.0 °F 65% 29.78 in 10.0 mi WNW 9.2 mph - N/A   Overcast
5:15 AM 33.8 °F 26.4 °F 21.2 °F 60% 29.78 in 10.0 mi NW 9.2 mph - N/A   Overcast
5:35 AM 33.8 °F 26.4 °F 21.2 °F 60% 29.78 in 10.0 mi WNW 9.2 mph - N/A   Overcast
5:55 AM 33.8 °F 26.4 °F 21.2 °F 60% 29.78 in 10.0 mi WNW 9.2 mph - N/A   Overcast
6:15 AM 33.8 °F 26.4 °F 23.0 °F 65% 29.78 in 10.0 mi WNW 9.2 mph - N/A   Overcast
6:35 AM 33.8 °F 25.8 °F 23.0 °F 65% 29.79 in 10.0 mi WNW 10.4 mph - N/A   Overcast
6:55 AM 32.0 °F 24.2 °F 21.2 °F 64% 29.79 in 10.0 mi NW 9.2 mph - N/A   Scattered Clouds
7:35 AM 33.8 °F 24.8 °F 21.2 °F 60% 29.79 in 10.0 mi NW 12.7 mph 17.3 mph N/A   Clear
7:55 AM 33.8 °F 23.9 °F 21.2 °F 60% 29.79 in 10.0 mi WNW 15.0 mph 20.7 mph N/A   Clear
8:15 AM 33.8 °F 22.8 °F 21.2 °F 60% 29.78 in 10.0 mi NW 18.4 mph - N/A   Clear
8:35 AM 33.8 °F 23.2 °F 21.2 °F 60% 29.79 in 10.0 mi NW 17.3 mph 20.7 mph N/A   Clear
8:55 AM 35.6 °F 26.2 °F 21.2 °F 56% 29.78 in 10.0 mi WNW 15.0 mph 21.9 mph N/A   Clear
9:15 AM 35.6 °F 27.1 °F 21.2 °F 56% 29.78 in 10.0 mi NW 12.7 mph - N/A   Clear
9:35 AM 37.4 °F 28.9 °F 21.2 °F 52% 29.78 in 10.0 mi NW 13.8 mph - N/A   Clear
9:55 AM 37.4 °F 28.9 °F 21.2 °F 52% 29.77 in 10.0 mi NW 13.8 mph - N/A   Clear
10:15 AM 37.4 °F 30.8 °F 21.2 °F 52% 29.77 in 10.0 mi NW 9.2 mph 19.6 mph N/A   Scattered Clouds
10:35 AM 37.4 °F 30.3 °F 21.2 °F 52% 29.77 in 10.0 mi NW 10.4 mph - N/A   Mostly Cloudy
10:55 AM 39.2 °F 31.6 °F 23.0 °F 52% 29.77 in 10.0 mi NW 12.7 mph - N/A   Overcast
11:15 AM 39.2 °F 33.0 °F 21.2 °F 49% 29.77 in 10.0 mi WNW 9.2 mph - N/A   Overcast
11:35 AM 39.2 °F 34.2 °F 21.2 °F 49% 29.76 in 10.0 mi WNW 6.9 mph - N/A   Overcast
11:55 AM 39.2 °F 33.0 °F 21.2 °F 49% 29.76 in 10.0 mi NW 9.2 mph - N/A   Overcast
12:15 PM 39.2 °F 31.2 °F 23.0 °F 52% 29.76 in 10.0 mi West 13.8 mph - N/A   Overcast
12:35 PM 39.2 °F 33.0 °F 21.2 °F 49% 29.75 in 10.0 mi WNW 9.2 mph - N/A   Overcast
12:55 PM 39.2 °F 31.6 °F 23.0 °F 52% 29.74 in 10.0 mi WNW 12.7 mph 18.4 mph N/A   Overcast
1:15 PM 41.0 °F 35.2 °F 21.2 °F 45% 29.73 in 10.0 mi West 9.2 mph - N/A   Overcast
1:35 PM 41.0 °F 33.1 °F 24.8 °F 53% 29.72 in 10.0 mi NW 15.0 mph 18.4 mph N/A   Overcast
1:55 PM 42.8 °F 36.2 °F 23.0 °F 46% 29.71 in 10.0 mi West 12.7 mph 17.3 mph N/A   Overcast
2:15 PM 39.2 °F 32.0 °F 21.2 °F 49% 29.71 in 10.0 mi WNW 11.5 mph 17.3 mph N/A   Overcast
2:35 PM 39.2 °F 31.6 °F 21.2 °F 49% 29.71 in 10.0 mi WNW 12.7 mph - N/A   Overcast
2:55 PM 39.2 °F 31.6 °F 21.2 °F 49% 29.71 in 10.0 mi NW 12.7 mph 18.4 mph N/A   Overcast
3:15 PM 39.2 °F 31.2 °F 21.2 °F 49% 29.70 in 10.0 mi NW 13.8 mph - N/A   Overcast
3:35 PM 39.2 °F 31.2 °F 23.0 °F 52% 29.71 in 10.0 mi WNW 13.8 mph - N/A   Overcast
3:55 PM 39.2 °F 31.6 °F 21.2 °F 49% 29.71 in 10.0 mi WNW 12.7 mph - N/A   Overcast
4:15 PM 39.2 °F 31.2 °F 23.0 °F 52% 29.71 in 10.0 mi WNW 13.8 mph - N/A   Overcast
4:35 PM 39.2 °F 30.8 °F 23.0 °F 52% 29.71 in 10.0 mi NW 15.0 mph - N/A   Overcast
4:55 PM 37.4 °F 30.3 °F 21.2 °F 52% 29.71 in 10.0 mi NW 10.4 mph - N/A   Overcast
5:15 PM 37.4 °F 28.5 °F 21.2 °F 52% 29.72 in 10.0 mi NW 15.0 mph 18.4 mph N/A   Overcast
5:35 PM 37.4 °F 29.3 °F 21.2 °F 52% 29.72 in 10.0 mi WNW 12.7 mph - N/A   Overcast
5:55 PM 37.4 °F 30.8 °F 23.0 °F 56% 29.73 in 10.0 mi WNW 9.2 mph - N/A   Overcast
6:15 PM 37.4 °F 30.3 °F 21.2 °F 52% 29.74 in 10.0 mi WNW 10.4 mph - N/A   Overcast
6:35 PM 35.6 °F 27.1 °F 21.2 °F 56% 29.74 in 10.0 mi WNW 12.7 mph 16.1 mph N/A   Overcast
6:55 PM 35.6 °F 27.1 °F 21.2 °F 56% 29.74 in 10.0 mi WNW 12.7 mph - N/A   Overcast
7:15 PM 35.6 °F 29.2 °F 21.2 °F 56% 29.74 in 10.0 mi WNW 8.1 mph - N/A   Overcast
7:35 PM 35.6 °F 28.0 °F 21.2 °F 56% 29.74 in 10.0 mi WNW 10.4 mph - N/A   Overcast
7:55 PM 35.6 °F 27.1 °F 21.2 °F 56% 29.74 in 10.0 mi WNW 12.7 mph 16.1 mph N/A   Overcast
8:15 PM 35.6 °F 27.5 °F 21.2 °F 56% 29.75 in 10.0 mi NW 11.5 mph 16.1 mph N/A   Overcast
8:35 PM 35.6 °F 27.1 °F 21.2 °F 56% 29.75 in 10.0 mi NW 12.7 mph - N/A   Overcast
8:55 PM 35.6 °F 28.0 °F 21.2 °F 56% 29.75 in 10.0 mi NW 10.4 mph - N/A   Overcast
9:15 PM 33.8 °F 25.3 °F 21.2 °F 60% 29.75 in 10.0 mi NW 11.5 mph - N/A   Overcast
9:35 PM 33.8 °F 23.9 °F 21.2 °F 60% 29.75 in 10.0 mi NW 15.0 mph - N/A   Overcast
9:55 PM 33.8 °F 24.8 °F 21.2 °F 60% 29.75 in 10.0 mi NNW 12.7 mph - N/A   Overcast
10:15 PM 33.8 °F 27.0 °F 21.2 °F 60% 29.75 in 10.0 mi NW 8.1 mph - N/A   Mostly Cloudy
10:35 PM 32.0 °F 21.6 °F 23.0 °F 69% 29.74 in 10.0 mi NNW 15.0 mph - N/A   Mostly Cloudy
10:55 PM 32.0 °F 22.5 °F 23.0 °F 69% 29.74 in 10.0 mi NW 12.7 mph - N/A   Mostly Cloudy
11:15 PM 30.2 °F 21.3 °F 23.0 °F 75% 29.74 in 10.0 mi NW 10.4 mph - N/A   Scattered Clouds
11:35 PM 30.2 °F 20.8 °F 21.2 °F 69% 29.74 in 10.0 mi WNW 11.5 mph - N/A   Clear
11:55 PM 30.2 °F 21.3 °F 21.2 °F 69% 29.74 in 10.0 mi NW 10.4 mph 17.3 mph N/A   Scattered Clouds